User: anonymous   Login
Location: Unspecified
(0.0000°N, 0.0000°E)
Time: 23:16:20
(UTC+00:00)
Language:

OPS-SAT - Orbit

View from above orbital plane
View from above orbital plane
View from above satellite
View from above satellite

Ground track
Ground track

The orbit data is extracted from the following two-line orbital elements,

1 44878U 19092F   21207.77787031  .00001571  00000-0  83568-4 0  9992
2 44878  97.4759  30.7008 0014753  39.0841 321.1455 15.16635085 88790
Epoch (UTC): 26 July 2021 18:40:07
Eccentricity: 0.0014753
inclination: 97.4759°
perigee height: 506 km
apogee height: 526 km
right ascension of ascending node: 30.7008°
argument of perigee: 39.0841°
revolutions per day: 15.16635085
mean anomaly at epoch: 321.1455°
orbit number at epoch: 8879

The dashed part of the orbit path shows where the satellite is in the earth's shadow,  

DLR